TimeAST,TemperatureF,Dew PointF,Humidity,Sea Level PressureIn,VisibilityMPH,Wind Direction,Wind SpeedMPH,Gust SpeedMPH,PrecipitationIn,Events,Conditions,WindDirDegrees,DateUTC
12:00 AM,81,70,61,29.74,6,NNW,4.6,,,,,330,2013-10-03 21:00:00
12:00 AM,80.6,69.8,70,29.74,-9999.0,NNW,4.6,-,N/A,,Clear,330,2013-10-03 21:00:00
1:00 AM,78.8,64.4,61,29.71,-9999.0,Variable,2.3,-,N/A,,Clear,0,2013-10-03 22:00:00
2:00 AM,77.0,66.2,69,29.71,-9999.0,West,4.6,-,N/A,,Clear,270,2013-10-03 23:00:00
3:00 AM,75,63,57,29.72,6,WNW,6.9,,,,,290,2013-10-04 00:00:00
3:00 AM,75.2,62.6,65,29.71,-9999.0,WNW,6.9,-,N/A,,Clear,290,2013-10-04 00:00:00
4:00 AM,73.4,62.6,69,29.71,-9999.0,West,8.1,-,N/A,,Clear,270,2013-10-04 01:00:00
5:00 AM,75.2,60.8,61,29.71,-9999.0,WNW,6.9,-,N/A,,Clear,290,2013-10-04 02:00:00
6:00 AM,76,59,46,29.73,5,West,6.9,,,,Haze,280,2013-10-04 03:00:00
6:00 AM,77.0,59.0,54,29.71,5.0,West,6.9,-,N/A,,Clear,280,2013-10-04 03:00:00
8:00 AM,86.0,55.4,35,29.74,-9999.0,NW,8.1,-,N/A,,Clear,310,2013-10-04 05:00:00
9:00 AM,90,55,21,29.76,6,WNW,6.9,,,,,300,2013-10-04 06:00:00
9:00 AM,91.4,55.4,29,29.74,-9999.0,WNW,6.9,-,N/A,,Clear,300,2013-10-04 06:00:00
10:00 AM,96.8,55.4,25,29.74,-9999.0,NNW,4.6,-,N/A,,Clear,330,2013-10-04 07:00:00
11:00 AM,102.2,48.2,16,29.71,-9999.0,North,6.9,-,N/A,,Clear,360,2013-10-04 08:00:00
12:00 PM,105,39,5,29.72,6,North,8.1,,,,,350,2013-10-04 09:00:00
12:00 PM,105.8,39.2,10,29.71,-9999.0,North,8.1,-,N/A,,Clear,350,2013-10-04 09:00:00
1:00 PM,105.8,39.2,10,29.68,-9999.0,North,12.7,-,N/A,,Clear,350,2013-10-04 10:00:00
2:00 PM,105.8,35.6,9,29.68,-9999.0,North,11.5,-,N/A,,Clear,350,2013-10-04 11:00:00
3:00 PM,105,36,4,29.67,6,North,11.5,,,,,10,2013-10-04 12:00:00
3:00 PM,105.8,35.6,9,29.65,-9999.0,North,11.5,-,N/A,,Clear,10,2013-10-04 12:00:00
4:00 PM,102.2,39.2,11,29.65,-9999.0,North,12.7,-,N/A,,Clear,10,2013-10-04 13:00:00
5:00 PM,100.4,41.0,13,29.68,-9999.0,North,11.5,-,N/A,,Clear,10,2013-10-04 14:00:00
6:00 PM,95,50,13,29.69,6,North,9.2,,,,,10,2013-10-04 15:00:00
6:00 PM,95.0,50.0,22,29.68,-9999.0,North,9.2,-,N/A,,Clear,10,2013-10-04 15:00:00
7:00 PM,91.4,53.6,28,29.68,-9999.0,NNE,8.1,-,N/A,,Clear,20,2013-10-04 16:00:00
8:00 PM,89.6,55.4,31,29.71,-9999.0,North,9.2,-,N/A,,Clear,10,2013-10-04 17:00:00
9:00 PM,88,64,35,29.71,6,NNE,10.4,,,,,20,2013-10-04 18:00:00
9:00 PM,87.8,64.4,46,29.71,-9999.0,NNE,10.4,-,N/A,,Clear,20,2013-10-04 18:00:00
10:00 PM,86.0,64.4,48,29.71,-9999.0,NNE,9.2,-,N/A,,Clear,20,2013-10-04 19:00:00
11:00 PM,82.4,64.4,54,29.68,-9999.0,NNE,9.2,-,N/A,,Clear,30,2013-10-04 20:00:00